COSMOS 413

Satellite information

Favourite Embed

Satellite Type and Status

PAYLOADIN ORBIT

Key statistics

Satellite COSMOS 413 at a glance.

Uptime

19785

Days in orbit

Revolutions

≈ 12.4

Per day

Orbit

LEO

Low Earth Orbit

Inclination

74.0

Latest

Satellite identification and parameters

Extended collection of information and parameters for COSMOS 413.

Object identification

Identified? True

Debris? False

Object name: COSMOS 413

International designator: 1971-041C

Object number (NORAD): 5212

Object ID (CCSDS): 5212

Country: COMMONWEALTH OF INDEPENDENT STATES (CIS)

Current information (Y/N): Y

RCS size: MEDIUM

Orbital parameters

Period: 115.77 minutes

Inclination: 74.0164 deg

SMA: 7868.472 km

Apoapsis: 1507.333 km

Periapsis: 1473.342 km

RAAN: 1.5751 deg

Eccentricy: 0.00216

Argument of periapsis: 349.0148 deg

Mean anomaly: 122.5473 deg

Mean motion: 12.43847455 rev/day

Mean motion (dot): -0.00000002 rev/day2

B* drag term: 0.000099731 1/REarth

Two-line elements (TLE)

Creation date: July 6, 2025, 10:16 p.m.

Reference frame: TEME

Reference center: EARTH

Epoch: July 6, 2025, 9:03 p.m. UTC

TLE line 0: 0 COSMOS 413

TLE line 1: 1 5212U 71041C 25187.87708374 -.00000002 00000-0 99731-4 0 9996

TLE line 2: 2 5212 74.0164 1.5751 0021600 349.0148 122.5473 12.43847455459758

Live tracking on map

Real-time ground track for satellite COSMOS 413.

In-orbit conjunctions

There are no conjunctions computed for COSMOS 413, at the moment. Check back to stay up to date, as we update our databases every day.

Go to all conjunctions

Associated space launch

Military communications satellites

COSMOS 413 was lifted into orbit during the mission ‘Kosmos-3M | Strela-1M 9-16’, on board a Kosmos-3M space rocket.

The launch took place on May 7, 1971, 2:20 p.m. from 132/1 (132L).

For more information about the launch, click the button.

Launch to space Kosmos-3M | Strela-1M 9-16
Kosmos-3M | Strela-1M 9-16

Agency: N/A

Status: Launch Successful

Launch date: May 7, 1971, 2:20 p.m. UTC

Rocket: Kosmos-3M

Launch pad: 132/1 (132L)

Location: Plesetsk Cosmodrome, Russian Federation

...

Latest news about this satellite

There are no fresh news available about this satellite. Check back as we update our databases every day.


Newsletter sign-up

Weekly statistics, charts and insights to help you stay on top of the space industry.